Location: Worth Mountain WMA
(34.9569°N, 81.4819°W)
Time: 00:35:19
(UTC-04:00)

Amateur Radio Satellites - All Passes

Search period start: 01 April 2015 00:05
Search period end: 02 April 2015 00:05
Location: Worth Mountain WMA, 34.9569°N, 81.4819°W

Satellite Date Start Highest point End Downlink Frequencies (MHz)
Time Altitude Azimuth
SPROUT 01 Apr 00:06:50 00:10:01 21° 71° (ENE) 00:13:18 437.525
CUBEBUG 1 01 Apr 00:06:51 00:11:16 86° 257° (WSW) 00:15:40 437.445
VELOX 1 01 Apr 00:15:19 00:19:15 29° 264° (W) 00:23:06 145.980
AISAT 01 Apr 00:21:30 00:25:10 24° 265° (W) 00:28:46 437.250
PCSat 01 Apr 00:28:28 00:33:55 75° 63° (ENE) 00:39:19 145.827
UNISAT 6 01 Apr 00:31:02 00:35:29 47° 285° (WNW) 00:39:58 437.425
QB50P1 01 Apr 00:37:07 00:41:21 79° 283° (WNW) 00:45:35 145.935-145.965
DUCHIFAT 1 01 Apr 00:37:23 00:41:37 81° 283° (WNW) 00:45:50 145.980
TIGRISAT 01 Apr 00:40:08 00:44:25 39° 287° (WNW) 00:48:44 435.000
QB50P2 01 Apr 00:53:02 00:57:09 49° 285° (WNW) 01:01:14 145.880/145.840
ESTCUBE 1 01 Apr 01:00:29 01:03:52 20° 267° (W) 01:07:06 437.505/2401.250
ITUPSAT 1 01 Apr 01:02:31 01:04:16 12° 66° (ENE) 01:06:18 437.325
BUGSAT 1 01 Apr 01:06:04 01:09:57 48° 285° (WNW) 01:13:51 437.445
ANTELSAT 01 Apr 01:12:52 01:16:02 18° 291° (WNW) 01:19:04 437.575/2403.000
TISAT 1 01 Apr 01:21:15 01:25:24 56° 260° (W) 01:29:32 437.305
RS-15 01 Apr 01:21:29 01:26:30 14° 15° (NNE) 01:31:57 29.354- 29.394
POPSAT HIP 1 01 Apr 01:21:47 01:25:13 24° 289° (WNW) 01:28:33 437.405
NANOSAT C BR1 01 Apr 01:31:35 01:34:36 19° 290° (WNW) 01:37:29 145.865
POLYITAN 1 01 Apr 01:38:43 01:41:19 16° 291° (WNW) 01:43:46 437.675
YUBILEINY 01 Apr 01:41:14 01:50:05 84° 83° (E) 01:58:52 435.215
SPROUT 01 Apr 01:42:18 01:45:59 27° 264° (W) 01:49:37 437.525
SWISSCUBE 01 Apr 01:46:09 01:50:35 40° 73° (ENE) 01:55:06 437.505
BEESAT 01 Apr 01:48:39 01:53:04 39° 72° (ENE) 01:57:32 436.000
PCSat 01 Apr 02:14:52 02:16:47 11° 256° (WSW) 02:18:18 145.827
Oscar 19 01 Apr 02:26:04 02:30:54 39° 98° (E) 02:35:46 437.125/150
ITUPSAT 1 01 Apr 02:36:55 02:41:42 64° 259° (W) 02:46:30 437.325
KKS-1 01 Apr 02:49:37 02:53:25 29° 72° (ENE) 02:57:18 437.445
SO-50 01 Apr 03:01:59 03:05:19 18° 47° (NE) 03:08:47 436.795
Gurwin Techsat 1B 01 Apr 03:04:11 03:08:14 23° 94° (E) 03:12:26 435.225
STARS 01 Apr 03:14:49 03:18:47 35° 72° (ENE) 03:22:47 437.465
VERMONT LUNAR 01 Apr 03:18:32 03:20:06 13° 143° (SE) 03:21:45 437.305
SWISSCUBE 01 Apr 03:25:19 03:28:39 18° 267° (W) 03:31:48 437.505
BEESAT 01 Apr 03:27:43 03:31:05 18° 267° (W) 03:34:18 436.000
RS-15 01 Apr 03:33:08 03:43:36 40° 47° (NE) 03:54:39 29.354- 29.394
ITAMSAT 1 01 Apr 03:37:35 03:42:42 61° 101° (E) 03:47:49 435.822/435.867
YUBILEINY 01 Apr 03:40:43 03:45:58 17° 279° (W) 03:50:37 435.215
AO-7 01 Apr 03:49:22 03:51:20 11° 87° (E) 03:54:10 29.400- 29.500
AIST 1 01 Apr 03:53:14 03:56:40 23° 90° (E) 04:00:12
JAS-2 01 Apr 04:05:15 04:08:20 13° 84° (E) 04:11:52 435.910
Oscar 19 01 Apr 04:06:05 04:10:02 22° 292° (WNW) 04:13:49 437.125/150
O/OREOS (USA 219) 01 Apr 04:17:19 04:21:55 89° 289° (WNW) 04:26:32 437.305
PHONESAT 2.4 01 Apr 04:21:56 04:24:20 18° 144° (SE) 04:26:48 2401.200-2431.200
KKS-1 01 Apr 04:26:43 04:30:06 21° 266° (W) 04:33:22 437.445
SO-50 01 Apr 04:41:25 04:46:16 55° 244° (WSW) 04:51:02 436.795
Gurwin Techsat 1B 01 Apr 04:43:28 04:48:21 37° 289° (WNW) 04:53:10 435.225
MOZHAYETS 4 01 Apr 04:44:51 04:48:46 29° 72° (ENE) 04:52:48
M-CUBED/EXP-1 PRIME 01 Apr 04:51:44 04:54:06 15° 62° (ENE) 04:56:44 437.505
STARS 01 Apr 04:52:29 04:55:23 17° 267° (W) 04:58:08 437.465
VERMONT LUNAR 01 Apr 04:54:06 04:57:26 79° 157° (SSE) 05:00:47 437.305
HORYU 2 01 Apr 04:57:07 05:01:38 74° 102° (ESE) 05:06:08 437.375
ITAMSAT 1 01 Apr 05:18:57 05:21:45 14° 295° (WNW) 05:24:18 435.822/435.867
ISS 01 Apr 05:23:49 05:27:00 54° 40° (NE) 05:30:09 145.825
AIST 1 01 Apr 05:30:40 05:34:16 24° 284° (WNW) 05:37:46
AO-7 01 Apr 05:37:16 05:45:35 77° 105° (ESE) 05:53:54 29.400- 29.500
RS-15 01 Apr 05:45:17 05:56:39 61° 247° (WSW) 06:08:22 29.354- 29.394
JAS-2 01 Apr 05:46:58 05:54:39 90° 327° (NNW) 06:01:32 435.910
AUBIESAT-1 01 Apr 05:57:25 06:01:26 79° 72° (ENE) 06:05:51 437.475
PHONESAT 2.4 01 Apr 05:58:51 06:02:23 85° 335° (NNW) 06:05:55 2401.200-2431.200
GONETS M04 01 Apr 06:00:03 06:06:47 25° 69° (ENE) 06:13:51
PRISM 01 Apr 06:15:45 06:17:59 15° 68° (ENE) 06:20:24 437.425
MOZHAYETS 4 01 Apr 06:22:18 06:26:01 23° 266° (W) 06:29:39
CUTE-I 01 Apr 06:23:34 06:24:26 11° 88° (E) 06:25:43 437.470
Cubesat XI-IV 01 Apr 06:24:16 06:25:33 11° 89° (E) 06:27:16 437.490
M-CUBED/EXP-1 PRIME 01 Apr 06:24:48 06:28:36 41° 258° (WSW) 06:32:43 437.505
VERMONT LUNAR 01 Apr 06:32:13 06:35:18 34° 351° (N) 06:38:24 437.305
CUBESAT XI-V 01 Apr 06:39:47 06:44:05 37° 73° (ENE) 06:48:25 437.345
STRAND 1 01 Apr 07:00:28 07:05:03 35° 71° (ENE) 07:09:44 437.568
ISS 01 Apr 07:02:16 07:03:04 11° 232° (SW) 07:03:43 145.825
CUSAT 1 01 Apr 07:07:34 07:09:57 14° 74° (ENE) 07:12:58 437.405
AO-7 01 Apr 07:31:39 07:37:39 22° 302° (WNW) 07:43:20 29.400- 29.500
JAS-2 01 Apr 07:34:10 07:38:38 16° 300° (WNW) 07:42:33 435.910
PHONESAT 2.4 01 Apr 07:37:44 07:40:59 33° 354° (N) 07:44:14 2401.200-2431.200
PRISM 01 Apr 07:49:11 07:53:09 40° 261° (W) 07:57:09 437.425
GONETS M04 01 Apr 07:55:38 08:04:21 63° 268° (W) 08:12:59
CUTE-I 01 Apr 07:59:52 08:05:11 75° 285° (WNW) 08:10:29 437.470
Cubesat XI-IV 01 Apr 08:00:59 08:06:18 73° 286° (WNW) 08:11:35 437.490
VERMONT LUNAR 01 Apr 08:10:22 08:13:27 33° 8° (N) 08:16:32 437.305
DANDE 01 Apr 08:13:32 08:17:55 45° 81° (E) 08:23:46 436.750
CUBESAT XI-V 01 Apr 08:18:19 08:21:41 18° 268° (W) 08:24:51 437.345
STRAND 1 01 Apr 08:40:14 08:44:21 23° 266° (W) 08:48:21 437.568
CUSAT 1 01 Apr 08:47:54 08:52:44 62° 262° (W) 08:59:09 437.405
BEESAT 3 01 Apr 09:00:48 09:02:42 13° 110° (ESE) 09:04:49 437.485
PHONESAT 2.4 01 Apr 09:16:26 09:19:46 38° 11° (N) 09:23:07 2401.200-2431.200
SEEDS 01 Apr 09:18:41 09:20:54 14° 91° (E) 09:23:20 437.485
COMPASS 1 01 Apr 09:35:48 09:38:43 19° 93° (E) 09:41:46 437.405
BRITE-PL 01 Apr 09:44:52 09:49:09 74° 101° (ESE) 09:53:43 437.365/2234.400
VERMONT LUNAR 01 Apr 09:47:59 09:51:20 82° 205° (SSW) 09:54:41 437.305
DOVE 4 01 Apr 09:49:50 09:53:54 34° 98° (E) 09:58:12 437.250
HO-68 01 Apr 09:54:20 10:01:21 54° 101° (E) 10:08:22 435.675
Oscar 11 01 Apr 09:55:50 09:57:24 12° 90° (E) 09:59:15 145.826/435.025
AIST 2 01 Apr 09:56:47 09:59:21 16° 110° (ESE) 10:02:06 435.215
DANDE 01 Apr 09:58:01 10:01:15 17° 264° (W) 10:04:46 436.750
BEESAT 2 01 Apr 10:03:00 10:07:03 63° 117° (ESE) 10:11:10 435.950
DELFI C3 01 Apr 10:04:14 10:04:23 10° 89° (E) 10:04:49 145.870
CANX-2 01 Apr 10:14:39 10:19:00 85° 283° (WNW) 10:23:18 2200.000
GOMX 1 01 Apr 10:15:42 10:20:04 77° 282° (WNW) 10:24:42 467.674
UWE-3 01 Apr 10:23:52 10:26:51 18° 93° (E) 10:30:02 435.000/436.395/437.385
ZACube-1 01 Apr 10:25:54 10:28:18 15° 92° (E) 10:30:55 437.345
CUTE 1.7 + AOD 2 01 Apr 10:28:09 10:32:27 65° 284° (WNW) 10:36:41 437.475
ANTELSAT 01 Apr 10:31:58 10:35:14 22° 71° (ENE) 10:38:40 437.575/2403.000
CUBEBUG 2 01 Apr 10:34:45 10:38:41 29° 96° (E) 10:42:45 437.445
BEESAT 3 01 Apr 10:36:31 10:40:25 43° 303° (WNW) 10:44:22 437.485
POPSAT HIP 1 01 Apr 10:37:33 10:39:12 12° 68° (ENE) 10:41:05 437.405
AAUSAT CUBESAT 2 01 Apr 10:40:33 10:44:48 81° 283° (WNW) 10:49:01 437.432
CINEMA 3 01 Apr 10:43:18 10:47:49 72° 101° (E) 10:52:32 145.822/145.860
NANOSAT C BR1 01 Apr 10:45:57 10:48:24 16° 69° (ENE) 10:51:02 145.865
HUMSAT D 01 Apr 10:52:09 10:54:06 13° 91° (E) 10:56:19 437.325/437.525
POLYITAN 1 01 Apr 10:52:34 10:55:32 19° 70° (ENE) 10:58:36 437.675
SEEDS 01 Apr 10:52:55 10:56:56 39° 286° (WNW) 11:00:54 437.485
PHONESAT 2.4 01 Apr 10:54:44 10:58:15 64° 207° (SSW) 11:01:45 2401.200-2431.200
UKube-1 01 Apr 11:01:50 11:05:21 24° 96° (E) 11:08:54 .
COMPASS 1 01 Apr 11:10:45 11:14:29 30° 287° (WNW) 11:18:09 437.405
DX 1 01 Apr 11:15:54 11:19:57 38° 98° (E) 11:24:00 434.975-435.025
DUCHIFAT 1 01 Apr 11:26:37 11:30:39 47° 74° (ENE) 11:34:42 145.980
QB50P1 01 Apr 11:26:38 11:30:41 48° 75° (ENE) 11:34:46 145.935-145.965
UNISAT 6 01 Apr 11:26:46 11:31:01 80° 258° (WSW) 11:35:21 437.425
VERMONT LUNAR 01 Apr 11:26:53 11:28:41 14° 217° (SW) 11:30:23 437.305
DOVE 4 01 Apr 11:28:20 11:31:30 19° 289° (WNW) 11:34:38 437.250
Oscar 11 01 Apr 11:29:43 11:33:55 48° 285° (WNW) 11:38:06 145.826/435.025
AIST 2 01 Apr 11:33:40 11:37:40 39° 304° (NW) 11:41:42 435.215
TIGRISAT 01 Apr 11:35:33 11:39:45 64° 259° (W) 11:44:02 435.000
DELFI C3 01 Apr 11:35:56 11:39:55 49° 285° (WNW) 11:43:52 145.870
QB50P2 01 Apr 11:42:27 11:46:39 79° 77° (ENE) 11:50:53 145.880/145.840
HO-68 01 Apr 11:42:55 11:48:42 26° 296° (WNW) 11:54:18 435.675
BEESAT 2 01 Apr 11:43:55 11:45:40 12° 314° (NW) 11:47:15 435.950
FUNcube-1 01 Apr 11:46:21 11:50:45 63° 284° (WNW) 11:55:13 145.935
BUGSAT 1 01 Apr 11:52:33 11:56:41 71° 77° (ENE) 12:00:47 437.445
UWE-3 01 Apr 11:59:24 12:03:30 35° 287° (WNW) 12:07:39 435.000/436.395/437.385
CUBEBUG 1 01 Apr 11:59:55 12:03:13 22° 94° (E) 12:06:36 437.445
ZACube-1 01 Apr 12:00:40 12:04:52 42° 286° (WNW) 12:09:08 437.345
ANTELSAT 01 Apr 12:08:23 12:11:57 25° 265° (W) 12:15:30 437.575/2403.000
VELOX 1 01 Apr 12:08:34 12:12:57 66° 101° (E) 12:17:20 145.980
POPSAT HIP 1 01 Apr 12:10:41 12:14:44 46° 261° (W) 12:18:48 437.405
CUBEBUG 2 01 Apr 12:11:43 12:15:15 22° 289° (WNW) 12:18:44 437.445
AISAT 01 Apr 12:14:40 12:19:05 81° 102° (ESE) 12:23:30 437.250
NANOSAT C BR1 01 Apr 12:20:07 12:24:00 36° 262° (W) 12:27:53 145.865
HUMSAT D 01 Apr 12:26:04 12:30:07 42° 286° (WNW) 12:34:12 437.325/437.525
POLYITAN 1 01 Apr 12:27:37 12:31:18 29° 264° (W) 12:34:56 437.675
50 SAT 01 Apr 12:35:00 12:38:56 49° 285° (WNW) 12:42:52 437.505
PHONESAT 2.4 01 Apr 12:35:09 12:36:11 11° 218° (SW) 12:37:04 2401.200-2431.200
UKube-1 01 Apr 12:37:55 12:41:25 24° 290° (WNW) 12:44:50 .
YUBILEINY 01 Apr 12:44:59 12:50:11 18° 82° (E) 12:55:58 435.215
DX 1 01 Apr 12:53:13 12:55:56 16° 292° (WNW) 12:58:27 434.975-435.025
JUGNU 01 Apr 12:54:44 12:57:26 13° 168° (SSE) 13:00:13 437.505
ESTCUBE 1 01 Apr 12:55:08 12:59:39 72° 284° (WNW) 13:04:06 437.505/2401.250
DUCHIFAT 1 01 Apr 13:05:20 13:06:48 11° 269° (W) 13:08:00 145.980
QB50P1 01 Apr 13:05:34 13:06:55 11° 270° (W) 13:07:58 145.935-145.965
TISAT 1 01 Apr 13:09:33 13:13:08 27° 96° (E) 13:16:46 437.305
PCSat 01 Apr 13:26:13 13:29:04 15° 106° (ESE) 13:32:12 145.827
SPROUT 01 Apr 13:31:32 13:35:48 65° 101° (E) 13:40:03 437.525
CUBEBUG 1 01 Apr 13:35:56 13:39:35 26° 289° (WNW) 13:43:09 437.445
Oscar 19 01 Apr 13:39:45 13:44:30 41° 72° (ENE) 13:49:18 437.125/150
SWISSCUBE 01 Apr 13:51:37 13:53:44 13° 91° (E) 13:56:06 437.505
BEESAT 01 Apr 13:54:06 13:56:05 13° 90° (E) 13:58:20 436.000
SRMSAT 01 Apr 14:01:23 14:02:54 11° 166° (SSE) 14:04:33 437.500
Gurwin Techsat 1B 01 Apr 14:22:06 14:26:25 27° 69° (ENE) 14:30:52 435.225
O/OREOS (USA 219) 01 Apr 14:30:44 14:35:17 82° 251° (WSW) 14:39:46 437.305
YUBILEINY 01 Apr 14:37:21 14:46:10 78° 278° (W) 14:55:03 435.215
ITUPSAT 1 01 Apr 14:41:04 14:45:37 42° 99° (E) 14:50:08 437.325
JUGNU 01 Apr 14:41:48 14:45:46 18° 178° (S) 14:49:44 437.505
AO-7 01 Apr 14:44:53 14:48:50 15° 55° (NE) 14:53:17 29.400- 29.500
TISAT 1 01 Apr 14:45:40 14:48:49 20° 290° (WNW) 14:51:49 437.305
ITAMSAT 1 01 Apr 14:52:10 14:57:20 67° 75° (ENE) 15:02:32 435.822/435.867
PCSat 01 Apr 15:06:42 15:12:02 60° 298° (WNW) 15:17:25 145.827
Oscar 19 01 Apr 15:20:21 15:24:04 19° 267° (W) 15:27:37 437.125/150
SWISSCUBE 01 Apr 15:27:19 15:31:59 52° 286° (WNW) 15:36:36 437.505
BEESAT 01 Apr 15:29:40 15:34:20 54° 286° (WNW) 15:38:58 436.000
AIST 1 01 Apr 15:40:23 15:44:37 59° 81° (E) 15:48:49
SRMSAT 01 Apr 15:47:34 15:51:23 17° 175° (S) 15:55:12 437.500
HORYU 2 01 Apr 15:52:17 15:56:28 44° 73° (ENE) 16:00:44 437.375
JAS-2 01 Apr 15:54:43 16:00:39 31° 66° (ENE) 16:07:11 435.910
Gurwin Techsat 1B 01 Apr 16:01:32 16:06:18 32° 264° (W) 16:11:01 435.225
KKS-1 01 Apr 16:19:48 16:24:15 84° 283° (WNW) 16:28:43 437.445
ITUPSAT 1 01 Apr 16:20:00 16:23:12 17° 292° (WNW) 16:26:13 437.325
JUGNU 01 Apr 16:30:31 16:34:06 16° 188° (S) 16:37:39 437.505
AO-7 01 Apr 16:32:15 16:40:31 78° 71° (ENE) 16:48:50 29.400- 29.500
ITAMSAT 1 01 Apr 16:35:18 16:37:24 12° 270° (W) 16:39:08 435.822/435.867
YUBILEINY 01 Apr 16:40:47 16:44:48 13° 299° (WNW) 16:48:03 435.215
STARS 01 Apr 16:43:43 16:48:07 71° 285° (WNW) 16:52:30 437.465
HORYU 2 01 Apr 17:31:04 17:33:25 14° 269° (W) 17:35:33 437.375
SRMSAT 01 Apr 17:36:02 17:39:53 18° 185° (S) 17:43:41 437.500
JAS-2 01 Apr 17:38:45 17:45:22 47° 264° (W) 17:52:38 435.910
CUTE-I 01 Apr 17:41:25 17:44:09 15° 65° (ENE) 17:47:08 437.470
Cubesat XI-IV 01 Apr 17:42:29 17:45:23 15° 65° (ENE) 17:48:32 437.490
RS-15 01 Apr 17:54:40 18:03:16 30° 106° (ESE) 18:12:20 29.354- 29.394
M-CUBED/EXP-1 PRIME 01 Apr 18:10:07 18:13:49 23° 98° (E) 18:17:32 437.505
MOZHAYETS 4 01 Apr 18:19:40 18:24:19 75° 283° (WNW) 18:28:55
BEESAT 2 01 Apr 18:26:41 18:29:11 16° 48° (NE) 18:31:47 435.950
AO-7 01 Apr 18:28:31 18:34:13 19° 269° (W) 18:39:24 29.400- 29.500
CUBESAT XI-V 01 Apr 18:42:07 18:43:30 11° 89° (E) 18:45:11 437.345
SO-50 01 Apr 18:52:26 18:57:01 76° 300° (WNW) 19:01:47 436.795
GONETS M04 01 Apr 18:57:07 19:04:16 31° 86° (E) 19:11:43
BEESAT 3 01 Apr 18:58:33 19:02:23 38° 56° (NE) 19:06:11 437.485
STRAND 1 01 Apr 19:15:37 19:18:21 15° 91° (E) 19:21:20 437.568
AUBIESAT-1 01 Apr 19:16:26 19:21:15 76° 288° (WNW) 19:25:50 437.475
CUTE-I 01 Apr 19:18:26 19:23:45 64° 259° (W) 19:29:05 437.470
Cubesat XI-IV 01 Apr 19:19:43 19:25:02 61° 259° (W) 19:30:21 437.490
SRMSAT 01 Apr 19:26:36 19:28:21 11° 194° (SSW) 19:29:57 437.500
PRISM 01 Apr 19:35:07 19:38:54 34° 98° (E) 19:42:41 437.425
M-CUBED/EXP-1 PRIME 01 Apr 19:44:23 19:48:45 34° 293° (WNW) 19:52:56 437.505
AIST 2 01 Apr 19:58:21 20:02:29 48° 57° (ENE) 20:06:32 435.215
BEESAT 2 01 Apr 20:03:40 20:07:35 43° 245° (WSW) 20:11:25 435.950
RS-15 01 Apr 20:04:06 20:14:56 66° 304° (NW) 20:25:55 29.354- 29.394
CUBESAT XI-V 01 Apr 20:16:52 20:21:23 55° 285° (WNW) 20:25:52 437.345
HO-68 01 Apr 20:20:03 20:25:55 29° 65° (ENE) 20:31:59 435.675
BEESAT 3 01 Apr 20:37:44 20:40:09 15° 250° (WSW) 20:42:22 437.485
GONETS M04 01 Apr 20:52:28 21:00:50 49° 283° (WNW) 21:09:11
BRITE-PL 01 Apr 20:52:43 20:57:20 59° 76° (ENE) 21:01:38 437.365/2234.400
STRAND 1 01 Apr 20:52:58 20:57:56 52° 287° (WNW) 21:02:51 437.568
DOVE 4 01 Apr 20:53:25 20:56:45 23° 72° (ENE) 21:00:05 437.250
CANX-2 01 Apr 21:04:24 21:08:24 43° 75° (ENE) 21:12:28 2200.000
PRISM 01 Apr 21:11:30 21:14:09 16° 291° (WNW) 21:16:37 437.425
CUTE 1.7 + AOD 2 01 Apr 21:17:37 21:21:45 57° 76° (ENE) 21:25:57 437.475
GOMX 1 01 Apr 21:20:56 21:25:24 79° 77° (ENE) 21:29:40 467.674
DANDE 01 Apr 21:25:48 21:28:51 72° 99° (E) 21:31:30 436.750
AAUSAT CUBESAT 2 01 Apr 21:28:13 21:32:09 42° 74° (ENE) 21:36:08 437.432
CUBEBUG 2 01 Apr 21:31:31 21:33:55 16° 69° (ENE) 21:36:29 437.445
AIST 2 01 Apr 21:38:50 21:40:41 12° 251° (WSW) 21:42:18 435.215
SEEDS 01 Apr 21:41:18 21:45:30 88° 256° (WSW) 21:49:46 437.485
CINEMA 3 01 Apr 21:42:31 21:46:26 41° 74° (ENE) 21:50:22 145.822/145.860
UKube-1 01 Apr 21:54:50 21:57:10 15° 68° (ENE) 21:59:42 .
CUSAT 1 01 Apr 21:57:28 21:59:27 17° 283° (WNW) 22:01:18 437.405
COMPASS 1 01 Apr 21:58:09 22:02:18 68° 259° (W) 22:06:31 437.405
ISS 01 Apr 22:00:10 22:03:25 73° 318° (NW) 22:06:40 145.825
HO-68 01 Apr 22:06:31 22:13:23 48° 260° (W) 22:20:16 435.675
DX 1 01 Apr 22:08:54 22:12:16 23° 70° (ENE) 22:15:45 434.975-435.025
DELFI C3 01 Apr 22:20:06 22:24:06 61° 76° (ENE) 22:28:09 145.870
Oscar 11 01 Apr 22:20:49 22:25:08 84° 78° (ENE) 22:29:29 145.826/435.025
RS-15 01 Apr 22:22:41 22:30:12 19° 332° (NNW) 22:37:27 29.354- 29.394
DOVE 4 01 Apr 22:30:59 22:34:30 23° 265° (W) 22:37:50 437.250
FUNcube-1 01 Apr 22:39:02 22:43:07 65° 77° (ENE) 22:47:15 145.935
CANX-2 01 Apr 22:42:38 22:44:38 13° 270° (W) 22:46:23 2200.000
UWE-3 01 Apr 22:53:14 22:57:21 63° 259° (W) 23:01:28 435.000/436.395/437.385
ZACube-1 01 Apr 22:53:20 22:57:29 81° 258° (WSW) 23:01:40 437.345
CUBEBUG 1 01 Apr 22:54:24 22:56:24 13° 68° (ENE) 22:58:37 437.445
VELOX 1 01 Apr 23:03:08 23:07:15 39° 73° (ENE) 23:11:23 145.980
AAUSAT CUBESAT 2 01 Apr 23:06:09 23:08:04 12° 270° (W) 23:09:45 437.432
CUBEBUG 2 01 Apr 23:06:36 23:10:23 34° 263° (W) 23:14:10 437.445
AISAT 01 Apr 23:09:19 23:13:34 47° 74° (ENE) 23:17:51 437.250
HUMSAT D 01 Apr 23:14:27 23:18:33 86° 75° (ENE) 23:22:41 437.325/437.525
50 SAT 01 Apr 23:17:35 23:21:24 57° 76° (ENE) 23:25:18 437.505
QB50P1 01 Apr 23:18:25 23:18:35 10° 90° (E) 23:19:03 145.935-145.965
CINEMA 3 01 Apr 23:22:07 23:23:56 12° 269° (W) 23:25:31 145.822/145.860
UNISAT 6 01 Apr 23:22:10 23:26:09 28° 96° (E) 23:30:13 437.425
UKube-1 01 Apr 23:28:55 23:33:01 41° 261° (W) 23:37:08 .
TIGRISAT 01 Apr 23:30:28 23:34:38 34° 97° (E) 23:38:54 435.000
QB50P2 01 Apr 23:32:21 23:35:00 17° 93° (E) 23:37:49 145.880/145.840
ISS 01 Apr 23:39:21 23:40:19 11° 336° (NNW) 23:41:13 145.825
BUGSAT 1 01 Apr 23:40:05 23:41:45 13° 92° (E) 23:43:38 437.445
DX 1 01 Apr 23:44:44 23:48:26 26° 264° (W) 23:52:05 434.975-435.025
ESTCUBE 1 01 Apr 23:51:15 23:55:47 70° 76° (ENE) 00:00:19 437.505/2401.250
TISAT 1 02 Apr 00:00:05 00:02:18 15° 69° (ENE) 00:04:42 437.305
